CW4086 Weather Reports


time (UTC)temp
C
wind
direction
speed
KPH
gust
KPH
rain 1hr
cm
rain 24hr
cm
rain mn
cm
humidity
%
barometer
mb
20260904212104 28 261 8.0 16.1 0.00 0.00 0.00 24 1012.9
20260904211606 28 277 9.7 20.9 0.00 0.00 0.00 25 1012.9
20260904211106 28 288 11.3 20.9 0.00 0.00 0.00 24 1013.0
20260904210604 28 271 9.7 16.1 0.00 0.00 0.00 24 1013.1
20260904210107 28 275 8.0 14.5 0.00 0.00 0.00 25 1013.1
20260904205606 28 287 4.8 12.9 0.00 0.00 0.00 25 1013.1
20260904205104 28 267 8.0 12.9 0.00 0.00 0.00 26 1013.1
20260904204604 28 280 6.4 16.1 0.00 0.00 0.00 26 1013.1
20260904204104 27 292 11.3 16.1 0.00 0.00 0.00 27 1013.2
20260904203603 27 271 9.7 14.5 0.00 0.00 0.00 27 1013.1
20260904203104 27 282 8.0 14.5 0.00 0.00 0.00 28 1013.1
20260904202604 27 267 8.0 12.9 0.00 0.00 0.00 29 1013.1
20260904202104 27 296 4.8 12.9 0.00 0.00 0.00 29 1013.2
20260904201604 27 331 4.8 14.5 0.00 0.00 0.00 29 1013.2
20260904201104 27 287 9.7 19.3 0.00 0.00 0.00 30 1013.2
20260904195604 26 282 9.7 19.3 0.00 0.00 0.00 32 1013.3
20260904195104 26 232 4.8 19.3 0.00 0.00 0.00 31 1013.3
20260904194104 26 270 4.8 14.5 0.00 0.00 0.00 33 1013.4
20260904193605 26 301 8.0 16.1 0.00 0.00 0.00 34 1013.4
20260904192604 25 306 8.0 12.9 0.00 0.00 0.00 36 1013.7
20260904192104 25 289 4.8 14.5 0.00 0.00 0.00 38 1013.7
20260904191605 25 276 8.0 14.5 0.00 0.00 0.00 40 1013.8
20260904191104 24 280 3.2 12.9 0.00 0.00 0.00 39 1013.8
20260904190606 24 278 4.8 11.3 0.00 0.00 0.00 42 1013.8
20260904185604 24 320 4.8 19.3 0.00 0.00 0.00 44 1013.8
20260904185104 24 285 9.7 19.3 0.00 0.00 0.00 46 1013.9
20260904184604 23 283 6.4 12.9 0.00 0.00 0.00 47 1013.9
20260904184104 23 296 4.8 12.9 0.00 0.00 0.00 47 1014.0
20260904183604 23 265 8.0 12.9 0.00 0.00 0.00 48 1014.0
20260904183104 23 310 4.8 11.3 0.00 0.00 0.00 48 1014.0
20260904182604 23 289 4.8 12.9 0.00 0.00 0.00 48 1013.9
20260904182104 23 284 6.4 12.9 0.00 0.00 0.00 50 1014.0
20260904181603 22 283 3.2 11.3 0.00 0.00 0.00 50 1014.1
20260904181103 22 288 3.2 11.3 0.00 0.00 0.00 51 1014.1
20260904180104 22 290 4.8 11.3 0.00 0.00 0.00 54 1013.9
20260904175604 22 250 4.8 12.9 0.00 0.00 0.00 54 1014.1
20260904174604 21 299 4.8 9.7 0.00 0.00 0.00 55 1014.1
20260904174104 21 305 1.6 8.0 0.00 0.00 0.00 55 1014.1
20260904173604 21 296 3.2 11.3 0.00 0.00 0.00 56 1014.1
20260904173103 21 291 1.6 11.3 0.00 0.00 0.00 57 1014.1
20260904172604 21 313 3.2 11.3 0.00 0.00 0.00 58 1013.9
20260904171106 20 300 4.8 8.0 0.00 0.00 0.00 59 1013.9
20260904170605 20 288 4.8 8.0 0.00 0.00 0.00 59 1013.9
20260904170108 19 309 4.8 9.7 0.00 0.00 0.00 59 1013.7
20260904165604 19 291 3.2 9.7 0.00 0.00 0.00 60 1013.7
20260904165104 18 269 1.6 9.7 0.00 0.00 0.00 60 1013.7
20260904164604 18 269 3.2 8.0 0.00 0.00 0.00 61 1013.7
20260904164104 18 256 0.0 4.8 0.00 0.00 0.00 62 1013.7
20260904163604 18 256 3.2 8.0 0.00 0.00 0.00 63 1013.7
20260904163104 18 245 4.8 8.0 0.00 0.00 0.00 65 1013.7
20260904162604 18 292 1.6 4.8 0.00 0.00 0.00 66 1013.6
20260904162104 17 292 3.2 4.8 0.00 0.00 0.00 68 1013.5
20260904161603 17 292 1.6 4.8 0.00 0.00 0.00 68 1013.4
20260904161104 17 292 3.2 8.0 0.00 0.00 0.00 67 1013.3
20260904160604 17 292 1.6 8.0 0.00 0.00 0.00 69 1013.2
20260904160107 17 292 4.8 8.0 0.00 0.00 0.00 70 1013.1
20260904155604 17 299 3.2 4.8 0.00 0.00 0.00 71 1013.1
20260904154104 16 299 3.2 4.8 0.00 0.00 0.00 74 1013.2
20260904153604 16 299 3.2 4.8 0.00 0.00 0.00 73 1013.2
20260904153104 16 306 3.2 4.8 0.00 0.00 0.00 73 1013.2
20260904152103 16 306 1.6 4.8 0.00 0.00 0.00 75 1013.2
20260904151604 16 306 1.6 4.8 0.00 0.00 0.00 75 1013.2
20260904151104 16 306 0.0 3.2 0.00 0.00 0.00 74 1013.2
20260904150108 15 306 0.0 0.0 0.00 0.00 0.00 73 1013.2
20260904145604 15 306 0.0 0.0 0.00 0.00 0.00 73 1013.2
20260904145104 15 306 0.0 0.0 0.00 0.00 0.00 72 1013.2
20260904144603 14 306 0.0 0.0 0.00 0.00 0.00 71 1013.2
20260904144104 14 306 0.0 0.0 0.00 0.00 0.00 71 1013.2
20260904143603 14 306 0.0 0.0 0.00 0.00 0.00 71 1013.2
20260904143104 14 306 0.0 0.0 0.00 0.00 0.00 71 1013.2
20260904142604 13 306 0.0 0.0 0.00 0.00 0.00 69 1013.2
20260904142104 13 306 0.0 0.0 0.00 0.00 0.00 70 1013.2
20260904141604 13 306 0.0 0.0 0.00 0.00 0.00 70 1013.2
20260904140603 13 306 0.0 0.0 0.00 0.00 0.00 70 1013.0
20260904140105 13 306 0.0 0.0 0.00 0.00 0.00 69 1012.9
20260904135604 13 306 0.0 1.6 0.00 0.00 0.00 69 1012.9
20260904135104 13 306 0.0 1.6 0.00 0.00 0.00 69 1012.9
20260904134604 13 306 0.0 0.0 0.00 0.00 0.00 69 1012.7
20260904134104 13 303 0.0 0.0 0.00 0.00 0.00 69 1012.7
20260904133604 13 309 0.0 0.0 0.00 0.00 0.00 69 1012.7
20260904132605 13 309 0.0 0.0 0.00 0.00 0.00 69 1012.6
20260904132103 13 309 0.0 0.0 0.00 0.00 0.00 69 1012.7
20260904131604 13 309 0.0 1.6 0.00 0.00 0.00 69 1012.7
20260904131104 13 309 0.0 1.6 0.00 0.00 0.00 69 1012.6
20260904130605 13 309 0.0 1.6 0.00 0.00 0.00 69 1012.6
20260904130108 13 309 0.0 1.6 0.00 0.00 0.00 69 1012.6
20260904125603 13 309 0.0 1.6 0.00 0.00 0.00 69 1012.6
20260904125104 13 309 0.0 1.6 0.00 0.00 0.00 68 1012.6
20260904124603 13 309 0.0 1.6 0.00 0.00 0.00 68 1012.6
20260904123604 13 308 0.0 1.6 0.00 0.00 0.00 66 1012.5
20260904123104 13 308 0.0 1.6 0.00 0.00 0.00 66 1012.5
20260904122605 14 308 0.0 1.6 0.00 0.00 0.00 65 1012.6
20260904122105 14 308 0.0 1.6 0.00 0.00 0.00 65 1012.5
20260904121104 14 308 0.0 1.6 0.00 0.00 0.00 66 1012.5
20260904120109 15 308 0.0 1.6 0.00 0.00 0.00 65 1012.5
20260904115104 15 308 0.0 0.0 0.00 0.00 0.00 64 1012.6
20260904114104 15 308 0.0 0.0 0.00 0.00 0.00 65 1012.6
20260904113603 15 308 0.0 0.0 0.00 0.00 0.00 65 1012.6
20260904113103 15 308 0.0 0.0 0.00 0.00 0.00 65 1012.5
20260904112604 15 308 0.0 0.0 0.00 0.00 0.00 65 1012.5
20260904112103 15 308 0.0 1.6 0.00 0.00 0.00 65 1012.5
20260904111603 15 308 0.0 1.6 0.00 0.00 0.00 66 1012.5
20260904111104 15 308 0.0 1.6 0.00 0.00 0.00 66 1012.5
20260904110603 15 308 0.0 1.6 0.00 0.00 0.00 66 1012.4
20260904110108 15 308 0.0 1.6 0.00 0.00 0.00 66 1012.4
20260904105604 15 308 1.6 1.6 0.00 0.00 0.00 66 1012.4
20260904105104 15 308 0.0 0.0 0.00 0.00 0.00 66 1012.4
20260904104603 15 308 0.0 0.0 0.00 0.00 0.00 66 1012.4
20260904104104 15 308 0.0 0.0 0.00 0.00 0.00 66 1012.3
20260904103604 15 308 0.0 0.0 0.00 0.00 0.00 66 1012.3
20260904103104 15 308 0.0 1.6 0.00 0.00 0.00 66 1012.4
20260904102603 15 308 0.0 1.6 0.00 0.00 0.00 66 1012.3
20260904102103 15 308 0.0 0.0 0.00 0.00 0.00 66 1012.3
20260904101604 15 308 0.0 0.0 0.00 0.00 0.00 67 1012.3
20260904101104 15 308 0.0 0.0 0.00 0.00 0.00 66 1012.4
20260904100604 15 308 0.0 1.6 0.00 0.00 0.00 67 1012.4
20260904100104 15 308 0.0 1.6 0.00 0.00 0.00 67 1012.4
20260904095604 15 308 0.0 0.0 0.00 0.00 0.00 67 1012.3
20260904095104 15 308 0.0 0.0 0.00 0.00 0.00 68 1012.3
20260904094604 15 308 0.0 0.0 0.00 0.00 0.00 68 1012.3
20260904094104 15 308 0.0 0.0 0.00 0.00 0.00 69 1012.4
20260904093604 15 308 0.0 0.0 0.00 0.00 0.00 69 1012.5
20260904093106 15 308 0.0 0.0 0.00 0.00 0.00 69 1012.4
20260904092604 15 308 0.0 0.0 0.00 0.00 0.00 69 1012.4
20260904092104 16 308 0.0 0.0 0.00 0.00 0.00 69 1012.3
20260904091604 16 308 0.0 0.0 0.00 0.00 0.00 69 1012.3
20260904091104 16 308 0.0 0.0 0.00 0.00 0.00 70 1012.3
20260904090604 16 308 0.0 0.0 0.00 0.00 0.00 71 1012.3
20260904090112 16 308 0.0 0.0 0.00 0.00 0.00 71 1012.3
20260904085104 16 308 0.0 0.0 0.00 0.00 0.00 71 1012.5
20260904084604 16 308 0.0 0.0 0.00 0.00 0.00 71 1012.5
20260904084103 16 308 0.0 0.0 0.00 0.00 0.00 70 1012.5
20260904083104 16 308 0.0 1.6 0.00 0.00 0.00 70 1012.6
20260904082604 16 308 0.0 1.6 0.00 0.00 0.00 70 1012.6
20260904081604 16 308 0.0 1.6 0.00 0.00 0.00 71 1012.6
20260904081104 16 308 0.0 1.6 0.00 0.00 0.00 71 1012.6
20260904080604 16 308 0.0 1.6 0.00 0.00 0.00 71 1012.7
20260904080105 16 308 0.0 1.6 0.00 0.00 0.00 72 1012.7
20260904075605 16 308 0.0 0.0 0.00 0.00 0.00 72 1012.8
20260904075104 16 308 0.0 0.0 0.00 0.00 0.00 72 1012.8
20260904074604 16 308 0.0 0.0 0.00 0.00 0.00 72 1012.8
20260904074104 16 308 0.0 1.6 0.00 0.00 0.00 72 1012.9
20260904073604 16 308 0.0 1.6 0.00 0.00 0.00 72 1012.9
20260904073103 16 308 0.0 1.6 0.00 0.00 0.00 72 1013.0
20260904072104 16 308 0.0 1.6 0.00 0.00 0.00 72 1013.0
20260904071105 16 308 0.0 1.6 0.00 0.00 0.00 72 1012.8
20260904070605 16 308 0.0 1.6 0.00 0.00 0.00 72 1012.7
20260904070108 16 308 0.0 1.6 0.00 0.00 0.00 71 1012.7
20260904065104 16 308 0.0 0.0 0.00 0.00 0.00 71 1012.8
20260904064604 16 308 0.0 0.0 0.00 0.00 0.00 71 1012.7
20260904063603 17 308 0.0 0.0 0.00 0.00 0.00 70 1012.7
20260904062604 17 308 0.0 1.6 0.00 0.00 0.00 69 1012.8
20260904062104 17 308 0.0 0.0 0.00 0.00 0.00 69 1012.7
20260904061604 17 308 0.0 0.0 0.00 0.00 0.00 69 1012.7
20260904061104 17 308 0.0 3.2 0.00 0.00 0.00 69 1012.7
20260904060604 17 308 0.0 3.2 0.00 0.00 0.00 69 1012.8
20260904055604 17 308 1.6 3.2 0.00 0.00 0.00 69 1013.0
20260904055104 17 307 0.0 1.6 0.00 0.00 0.00 69 1013.0
20260904054604 17 307 0.0 0.0 0.00 0.00 0.00 70 1013.1
20260904054104 17 307 0.0 0.0 0.00 0.00 0.00 70 1013.1
20260904053604 17 307 0.0 0.0 0.00 0.00 0.00 69 1013.1
20260904053104 17 307 0.0 0.0 0.00 0.00 0.00 70 1013.1
20260904052104 17 307 0.0 3.2 0.00 0.00 0.00 69 1013.1
20260904051604 17 307 0.0 4.8 0.00 0.00 0.00 69 1013.1
20260904051104 18 307 1.6 4.8 0.00 0.00 0.00 69 1013.1
20260904050606 18 307 1.6 4.8 0.00 0.00 0.00 69 1013.1
20260904050105 18 307 1.6 3.2 0.00 0.00 0.00 69 1013.1
20260904045608 18 307 1.6 4.8 0.00 0.00 0.00 68 1013.1
20260904044603 18 307 1.6 4.8 0.00 0.00 0.00 68 1013.1
20260904044104 18 307 1.6 4.8 0.00 0.00 0.00 67 1013.0
20260904043104 18 307 3.2 4.8 0.00 0.00 0.00 67 1012.9
20260904042604 18 308 1.6 4.8 0.00 0.00 0.00 66 1012.9
20260904042104 18 308 1.6 4.8 0.00 0.00 0.00 66 1012.9
20260904041604 18 308 3.2 4.8 0.00 0.00 0.00 66 1012.9
20260904041106 19 308 1.6 8.0 0.00 0.00 0.00 66 1012.7
20260904040604 19 308 1.6 8.0 0.00 0.00 0.00 65 1012.6
20260904040105 19 306 4.8 8.0 0.00 0.00 0.00 65 1012.6
20260904035604 19 296 3.2 4.8 0.00 0.00 0.00 64 1012.6
20260904035104 19 296 1.6 8.0 0.00 0.00 0.00 64 1012.5
20260904034604 19 296 3.2 8.0 0.00 0.00 0.00 64 1012.5
20260904034104 20 294 4.8 8.0 0.00 0.00 0.00 63 1012.5
20260904033604 20 292 3.2 8.0 0.00 0.00 0.00 62 1012.5
20260904033104 20 292 3.2 8.0 0.00 0.00 0.00 62 1012.5
20260904032604 20 291 3.2 4.8 0.00 0.00 0.00 61 1012.4
20260904032104 20 290 3.2 4.8 0.00 0.00 0.00 61 1012.4
20260904031604 20 290 1.6 4.8 0.00 0.00 0.00 60 1012.3
20260904031104 20 288 1.6 4.8 0.00 0.00 0.00 59 1012.2
20260904030104 20 277 3.2 4.8 0.00 0.00 0.00 58 1011.9
20260904025615 21 304 3.2 4.8 0.00 0.00 0.00 58 1011.9
20260904025104 21 295 1.6 4.8 0.00 0.00 0.00 57 1011.9
20260904024604 21 306 1.6 4.8 0.00 0.00 0.00 57 1011.9
20260904024104 21 299 1.6 4.8 0.00 0.00 0.00 56 1011.8
20260904023604 21 288 1.6 4.8 0.00 0.00 0.00 56 1011.9
20260904023104 21 264 1.6 3.2 0.00 0.00 0.00 55 1011.8
20260904022606 21 263 0.0 3.2 0.00 0.00 0.00 54 1011.8
20260904022104 22 263 1.6 4.8 0.00 0.00 0.00 53 1011.8
20260904021604 22 277 1.6 4.8 0.00 0.00 0.00 52 1011.9
20260904020105 23 243 1.6 4.8 0.00 0.00 0.00 49 1011.9
20260904015604 23 271 1.6 8.0 0.00 0.00 0.00 47 1011.9
20260904015104 24 270 3.2 8.0 0.00 0.00 0.00 45 1011.8
20260904014104 25 276 3.2 8.0 0.00 0.00 0.00 43 1011.7
20260904013606 25 234 1.6 11.3 0.00 0.00 0.00 42 1011.7
20260904013104 25 183 4.8 11.3 0.00 0.00 0.00 41 1011.7
20260904012603 25 219 4.8 11.3 0.00 0.00 0.00 40 1011.6
20260904011604 26 231 4.8 12.9 0.00 0.00 0.00 39 1011.5
20260904010608 26 240 4.8 11.3 0.00 0.00 0.00 37 1011.4
20260904010105 26 223 4.8 12.9 0.00 0.00 0.00 37 1011.4
20260904005610 26 248 8.0 14.5 0.00 0.00 0.00 36 1011.4
20260904005103 26 269 8.0 14.5 0.00 0.00 0.00 35 1011.4
20260904004604 27 245 9.7 14.5 0.00 0.00 0.00 33 1011.4
20260904004103 27 264 8.0 19.3 0.00 0.00 0.00 32 1011.4
20260904002104 27 254 9.7 22.5 0.00 0.00 0.00 31 1011.3
20260904001604 28 256 11.3 22.5 0.00 0.00 0.00 30 1011.3
20260904001103 28 210 8.0 14.5 0.00 0.00 0.00 30 1011.3
20260904000604 28 238 9.7 19.3 0.00 0.00 0.00 30 1011.3
20260903235104 28 253 8.0 16.1 0.00 0.00 0.00 28 1011.2
20260903234604 28 281 9.7 16.1 0.00 0.00 0.00 28 1011.2
20260903234104 28 265 9.7 14.5 0.00 0.00 0.00 28 1011.3
20260903233604 28 249 4.8 14.5 0.00 0.00 0.00 26 1011.3
20260903233104 28 264 9.7 14.5 0.00 0.00 0.00 26 1011.3
20260903232604 29 237 8.0 16.1 0.00 0.00 0.00 25 1011.4
20260903232104 29 259 8.0 16.1 0.00 0.00 0.00 26 1011.3
20260903231603 28 258 9.7 16.1 0.00 0.00 0.00 26 1011.5
20260903231104 29 257 9.7 16.1 0.00 0.00 0.00 25 1011.6
20260903230609 29 265 9.7 16.1 0.00 0.00 0.00 24 1011.7
20260903230104 29 226 9.7 14.5 0.00 0.00 0.00 25 1011.6
20260903225611 29 236 8.0 19.3 0.00 0.00 0.00 24 1011.6
20260903225104 29 282 9.7 19.3 0.00 0.00 0.00 24 1011.6
20260903224604 29 276 6.4 20.9 0.00 0.00 0.00 25 1011.7
20260903224103 29 252 9.7 20.9 0.00 0.00 0.00 25 1011.7
20260903223604 29 263 11.3 16.1 0.00 0.00 0.00 24 1011.8
20260903223104 29 254 6.4 16.1 0.00 0.00 0.00 24 1011.8
20260903222104 29 284 6.4 16.1 0.00 0.00 0.00 24 1011.9
20260903221104 28 280 8.0 16.1 0.00 0.00 0.00 25 1011.9
20260903220603 28 260 9.7 19.3 0.00 0.00 0.00 24 1012.0
20260903220105 28 263 9.7 19.3 0.00 0.00 0.00 24 1012.1
20260903215104 28 269 9.7 19.3 0.00 0.00 0.00 25 1012.2
20260903214104 28 265 9.7 19.3 0.00 0.00 0.00 24 1012.4
20260903213604 28 241 8.0 19.3 0.00 0.00 0.00 23 1012.5
20260903212603 28 284 9.7 19.3 0.00 0.00 0.00 24 1012.5